DB0TGO-13 Weather Reports


time (UTC)temp
C
wind
direction
speed
KPH
gust
KPH
rain 1hr
cm
rain 24hr
cm
rain mn
cm
humidity
%
barometer
mb
20260902204509 14 210 0.0 0.0 0.00 0.00 0.00 81 1012.9
20260902203010 14 210 0.0 0.0 0.00 0.00 0.00 81 1012.9
20260902201509 16 210 0.0 0.0 0.00 0.00 0.00 73 1012.8
20260902200009 16 190 3.2 0.0 0.00 0.00 0.00 73 1012.8
20260902194510 16 190 3.2 0.0 0.00 0.00 0.00 73 1013.0
20260902193010 16 230 3.2 0.0 0.00 0.00 0.00 73 1013.0
20260902191509 18 230 3.2 0.0 0.00 0.00 0.00 67 1013.0
20260902190010 18 240 3.2 0.0 0.00 0.00 0.00 67 1013.0
20260902184511 18 240 3.2 0.0 0.00 0.00 0.00 63 1012.6
20260902183009 18 260 4.8 0.0 0.00 0.00 0.00 63 1012.6
20260902181509 18 290 6.4 0.0 0.00 0.00 0.00 63 1012.7
20260902180009 18 290 6.4 0.0 0.00 0.00 0.00 63 1012.7
20260902174509 20 290 8.0 0.0 0.00 0.00 0.00 60 1012.8
20260902173009 20 290 8.0 0.0 0.00 0.00 0.00 60 1012.8
20260902171511 21 290 8.0 0.0 0.00 0.00 0.00 52 1012.7
20260902170009 21 280 12.9 0.0 0.00 0.00 0.00 52 1012.7
20260902164510 21 230 8.0 0.0 0.00 0.00 0.00 50 1012.7
20260902163009 21 230 8.0 0.0 0.00 0.00 0.00 50 1012.7
20260902161510 22 230 8.0 0.0 0.00 0.00 0.00 47 1012.8
20260902160010 22 250 11.3 0.0 0.00 0.00 0.00 47 1012.8
20260902154509 22 210 8.0 0.0 0.00 0.00 0.00 47 1012.9
20260902153009 22 210 8.0 0.0 0.00 0.00 0.00 47 1012.9
20260902151509 22 210 8.0 0.0 0.00 0.00 0.00 48 1013.2
20260902150010 22 240 4.8 0.0 0.00 0.00 0.00 48 1013.2
20260902144510 21 220 8.0 0.0 0.00 0.00 0.00 50 1013.4
20260902143009 21 220 8.0 0.0 0.00 0.00 0.00 50 1013.4
20260902141510 22 220 8.0 0.0 0.00 0.00 0.00 47 1013.5
20260902140009 22 270 9.7 0.0 0.00 0.00 0.00 47 1013.5
20260902134509 21 270 9.7 0.0 0.00 0.00 0.00 47 1013.7
20260902133009 21 290 12.9 0.0 0.00 0.00 0.00 47 1013.7
20260902131509 21 290 12.9 0.0 0.00 0.00 0.00 49 1013.9
20260902130009 21 290 11.3 0.0 0.00 0.00 0.00 49 1013.9
20260902124509 21 290 11.3 0.0 0.00 0.00 0.00 51 1014.0
20260902123010 21 260 9.7 0.0 0.00 0.00 0.00 51 1014.0
20260902121510 20 260 9.7 0.0 0.00 0.00 0.00 50 1014.3
20260902120009 20 270 11.3 0.0 0.00 0.00 0.00 50 1014.3
20260902114509 20 270 12.9 0.0 0.00 0.00 0.00 52 1014.3
20260902113010 20 270 12.9 0.0 0.00 0.00 0.00 52 1014.3
20260902111509 20 270 12.9 0.0 0.00 0.00 0.00 50 1014.4
20260902110009 20 280 12.9 0.0 0.00 0.00 0.00 50 1014.4
20260902104509 20 280 11.3 0.0 0.00 0.00 0.00 55 1014.7
20260902103009 20 280 11.3 0.0 0.00 0.00 0.00 55 1014.7
20260902101510 19 280 11.3 0.0 0.00 0.00 0.00 56 1014.7
20260902100010 19 230 11.3 0.0 0.00 0.00 0.00 56 1014.7
20260902094510 18 260 9.7 0.0 0.00 0.00 0.00 61 1014.8
20260902093010 18 260 9.7 0.0 0.00 0.00 0.00 61 1014.8
20260902091509 18 270 8.0 0.0 0.00 0.00 0.00 63 1014.9
20260902090010 18 270 8.0 0.0 0.00 0.00 0.00 63 1014.9
20260902084510 18 240 9.7 0.0 0.00 0.00 0.00 64 1014.8
20260902083009 18 240 9.7 0.0 0.00 0.00 0.00 64 1014.8
20260902081510 17 230 6.4 0.0 0.00 0.00 0.00 68 1014.5
20260902080012 17 230 6.4 0.0 0.00 0.00 0.00 68 1014.5
20260902074510 16 230 6.4 0.0 0.00 0.00 0.00 75 1014.5
20260902073009 16 240 4.8 0.0 0.00 0.00 0.00 75 1014.5
20260902071509 15 240 4.8 0.0 0.00 0.00 0.00 79 1014.6
20260902070009 15 250 4.8 0.0 0.00 0.00 0.00 79 1014.6
20260902064509 15 250 4.8 0.0 0.00 0.00 0.00 82 1014.6
20260902063010 15 270 4.8 0.0 0.00 0.00 0.00 82 1014.6
20260902061509 14 270 4.8 0.0 0.00 0.00 0.00 85 1014.7
20260902060009 14 270 4.8 0.0 0.00 0.00 0.00 85 1014.7
20260902054510 13 270 4.8 0.0 0.00 0.00 0.00 87 1014.6
20260902053009 13 270 8.0 0.0 0.00 0.00 0.00 87 1014.6
20260902051509 13 270 8.0 0.0 0.00 0.00 0.00 90 1014.5
20260902050010 13 270 8.0 0.0 0.00 0.00 0.00 90 1014.5
20260902044509 11 280 4.8 0.0 0.00 0.00 0.00 97 1014.0
20260902043009 11 280 4.8 0.0 0.00 0.00 0.00 97 1014.0
20260902041509 12 280 4.8 0.0 0.00 0.00 0.00 98 1013.7
20260902040010 12 230 1.6 0.0 0.00 0.00 0.00 98 1013.7
20260902034509 11 250 3.2 0.0 0.00 0.00 0.00 93 1013.9
20260902033009 11 250 3.2 0.0 0.00 0.00 0.00 93 1013.9
20260902031510 13 250 4.8 0.0 0.00 0.00 0.00 89 1013.9
20260902030007 13 250 4.8 0.0 0.00 0.00 0.00 89 1013.9